Asheville, NC

8:37 PM EDT on March 30, 2017 (GMT -0400)
Asheville Regional

Weather History for KAVL - May, 2013

Change the Weather History Date:

Friday, May 17, 2013

  Actual Average Record
Temperature  
Mean Temperature 66 °F 63 °F  
Max Temperature 79 °F 75 °F 88 °F (1896)
Min Temperature 53 °F 52 °F 34 °F (1967)
Degree Days  
Heating Degree Days 0 3  
Month to date heating degree days 120 78  
Since 1 July heating degree days 4058 4150  
Cooling Degree Days 1 2  
Month to date cooling degree days 4 18  
Year to date cooling degree days 9 26  
Growing Degree Days 16 (Base 50)    
Moisture  
Dew Point 55 °F    
Average Humidity 72    
Maximum Humidity 100    
Minimum Humidity 43    
Precipitation  
Precipitation 0.00 in 0.11 in 2.55 in (1980)
Month to date precipitation 5.51 1.94  
Year to date precipitation 26.85 16.53  
Snow  
Snow 0.00 in 0.00 in 0.00 in ()
Month to date snowfall 0.0 0.0  
Since 1 July snowfall 0.5 9.9  
Snow Depth 0.00 in    
Sea Level Pressure  
Sea Level Pressure 30.08 in    
Wind  
Wind Speed 4 mph (SSW)    
Max Wind Speed 16 mph    
Max Gust Speed 21 mph    
Visibility 10 miles    
Events      
T = Trace of Precipitation, MM = Missing Value Source: NWS Daily Summary

Daily Weather History Graph

Daily Weather History Graph

Search for Another Location

Airport or City:

Trip Planner

Search our weather history database for the weather conditions in past years. The results will help you decide how hot, cold, wet, or windy it might be!

Date:

Astronomy

May. 17, 2013 Rise Set
Actual Time 6:23 AM EDT 8:29 PM EDT
Civil Twilight 5:55 AM EDT 8:58 PM EDT
Nautical Twilight 5:20 AM EDT 9:32 PM EDT
Astronomical Twilight 4:43 AM EDT 10:10 PM EDT
Moon 12:49 PM EDT (5/17) 1:26 AM EDT (5/17)
Length of Visible Light 15h 02m
Length of Day
14h 05m
Waxing Crescent, 45% of the Moon is Illuminated
May 17
Waxing Crescent
May 18
First Quarter
May 25
Full
May 31
Last Quarter
Jun 8
New

Hourly Weather History & Observations

Time (EDT) Temp. Dew Point Humidity Pressure Visibility Wind Dir Wind Speed Gust Speed Precip Events Conditions
12:54 AM 57.0 °F 54.0 °F 89% 30.04 in 10.0 mi Calm Calm - N/A   Clear
1:54 AM 57.0 °F 54.0 °F 89% 30.03 in 10.0 mi Calm Calm - N/A   Clear
2:54 AM 55.9 °F 54.0 °F 93% 30.03 in 10.0 mi Calm Calm - N/A   Clear
3:54 AM 54.0 °F 53.1 °F 97% 30.05 in 10.0 mi WNW 3.5 mph - N/A   Clear
4:54 AM 54.0 °F 52.0 °F 93% 30.06 in 10.0 mi NNW 4.6 mph - N/A   Clear
5:54 AM 54.0 °F 52.0 °F 93% 30.07 in 10.0 mi Calm Calm - N/A   Clear
6:54 AM 54.0 °F 52.0 °F 93% 30.09 in 7.0 mi Calm Calm - N/A   Clear
7:54 AM 57.2 °F 53.6 °F 88% 30.15 in 8.0 mi Calm Calm - N/A   Clear
8:54 AM 60.1 °F 55.9 °F 86% 30.12 in 10.0 mi WNW 3.5 mph - N/A   Scattered Clouds
9:54 AM 63.0 °F 55.9 °F 78% 30.12 in 10.0 mi Calm Calm - N/A   Scattered Clouds
10:54 AM 69.1 °F 57.0 °F 65% 30.12 in 10.0 mi North 3.5 mph - N/A   Mostly Cloudy
11:54 AM 73.9 °F 55.9 °F 53% 30.10 in 10.0 mi Calm Calm - N/A   Partly Cloudy
12:54 PM 77.0 °F 57.9 °F 52% 30.09 in 10.0 mi South 5.8 mph - N/A   Clear
1:54 PM 75.0 °F 55.9 °F 51% 30.08 in 10.0 mi SSE 6.9 mph - N/A   Mostly Cloudy
2:54 PM 75.2 °F 59.0 °F 57% 30.12 in 10.0 mi South 9.2 mph - N/A   Mostly Cloudy
3:50 PM 78.8 °F 51.8 °F 39% 30.11 in 10.0 mi SSE 9.2 mph - N/A   Clear
3:54 PM 79.0 °F 55.0 °F 44% 30.05 in 10.0 mi South 10.4 mph - N/A   Clear
4:54 PM 77.0 °F 55.0 °F 47% 30.04 in 10.0 mi SSW 9.2 mph - N/A   Clear
5:54 PM 77.0 °F 54.0 °F 45% 30.03 in 10.0 mi South 10.4 mph - N/A   Clear
6:54 PM 73.9 °F 57.9 °F 57% 30.04 in 10.0 mi South 10.4 mph - N/A   Partly Cloudy
7:54 PM 72.0 °F 57.9 °F 61% 30.06 in 10.0 mi SSW 9.2 mph - N/A   Clear
8:54 PM 69.1 °F 55.0 °F 61% 30.07 in 10.0 mi South 9.2 mph - N/A   Clear
9:54 PM 66.9 °F 55.0 °F 66% 30.08 in 10.0 mi Calm Calm - N/A   Partly Cloudy
10:54 PM 66.0 °F 55.0 °F 68% 30.09 in 10.0 mi Calm Calm - N/A   Partly Cloudy
11:54 PM 64.9 °F 55.9 °F 73% 30.09 in 10.0 mi Calm Calm - N/A   Mostly Cloudy